Regional Weather Roundup
Issued by NWS Binghamton, NY

Home | Current Version | Previous Version | Text Only | Print | Product List | Glossary On
Versions: 1 2 3 4 5 6 7 8 9 10 11 12 13 14 15 16 17 18 19 20 21 22 23 24 25 26 27 28 29 30 31 32 33 34 35 36 37 38 39 40 41 42 43 44 45 46 47 48 49 50
000
ASUS41 KBGM 311010
RWRBGM
RWRBGM
BINGHAMTON REGIONAL WEATHER ROUNDUP
NATIONAL WEATHER SERVICE BINGHAMTON NY
600 AM EDT MON AUG 31 2015

Note: "fair" indicates few or no clouds below 12,000 feet with no
significant weather and/or obstructions to visibility.

* = Station(s) that does not report precipitation, such as rain,
snow, etc, also no thunder or fog.

!NYZ009-015>018-022>025-036-037-044>046-055>057-062-311100
...CENTRAL NEW YORK...

CITY           SKY/WX    TMP DP  RH WIND       PRES   REMARKS
BINGHAMTON     MOCLDY    64  64 100 MISG      30.07R FOG
CORTLAND       FOG       61  61 100 CALM      30.06S VSB 1/4
DANSVILLE      MOCLDY    65  62  90 SE8       30.04S
ELMIRA         FOG       64  64 100 NW3       30.05S VSB 1/8
ITHACA         CLOUDY    62  62 100 CALM      30.06S
HORNELL        FOG       63  61  94 SE3       30.10R VSB 1/2
MONTICELLO     PTCLDY    64  63  94 CALM      30.08R
NORWICH        CLOUDY    63  63 100 CALM      30.05S FOG
ONEONTA        FOG       63  63 100 W3        30.07S VSB 1/4
PENN YAN       CLEAR     67  65  93 SW6       30.03F
ROME           CLEAR     59  58  96 SE5       30.02S
SIDNEY         FOG       63  63 100 CALM      30.05S VSB 1/4
SYRACUSE       PTCLDY    62  61  96 CALM      29.99F FOG
$$

!PAZ038>040-043-044-047-048-072-311100
...NORTHEAST PENNSYLVANIA...

CITY           SKY/WX    TMP DP  RH WIND       PRES   REMARKS
HAZLETON       FOG       64  63  94 CALM      30.13S VSB 1/4
SCRANTON       MOCLDY    67  63  87 CALM      30.07R
TOWANDA*       CLEAR     63  63 100 MISG      30.07S
$$
&&
KEY
WCI = WIND CHILL INDEX
VSB = VISIBILITY
HX  = HEAT INDEX
$$


USA.gov is the U.S. government's official web portal to all federal, state and local government web resources and services.